Temp
76 76 80 79 79 59 68 71 63 67 68 69 56 55 57 55 51 53 49 61 63 64 68 74 73 75 74 79 82 83 82 82 81 81 82 83 83 83 83 83 83 83 84 84 85 84 85 85 84 84 82 82 82 81 80 80 80 80 79 79 79 80 80
77 82 79 81 82 72 68 64 68 72 76 72 62 48 48 51 43 46 56 58 53 59 53 64 75 73 72 75 79 82 82 81 79 81 82 83 83 84 84 84 84 84 84 84 86 86 85 85 85 84 83 83 83 82 82 80 80 79 80 80 80 79 79
76 81 79 75 81 82 75 72 77 72 54 59 57 55 48 45 45 43 50 59 55 54 55 61 70 74 73 72 77 80 80 79 79 81 82 83 84 84 83 83 83 83 83 84 85 86 86 86 85 85 84 84 83 83 83 82 81 81 81 82 81 80 80
73 75 74 62 69 79 80 77 76 72 65 59 53 60 50 53 41 49 46 54 51 61 62 67 73 77 78 72 74 78 80 80 81 81 83 82 82 83 83 83 83 84 84 85 86 86 86 86 85 86 85 85 84 83 82 82 82 82 81 81 81 80 80
69 61 67 66 70 66 69 68 66 71 68 66 66 61 60 48 41 43 43 46 48 57 72 77 78 79 80 76 73 77 80 81 82 83 83 83 83 83 84 84 84 84 84 85 86 87 88 87 87 86 86 85 85 84 83 83 81 81 81 81 81 80 80
57 62 72 75 75 75 71 68 63 70 66 57 59 52 65 58 53 40 45 48 47 67 82 79 79 81 83 82 77 78 80 82 82 83 84 84 84 84 84 85 85 85 84 85 86 87 87 87 86 86 86 86 85 84 84 83 83 82 82 81 81 81 81
56 66 73 76 80 79 77 74 67 72 70 62 58 47 51 62 59 56 51 48 54 67 71 79 80 82 84 84 79 79 81 82 83 84 85 85 85 85 85 85 86 86 85 85 85 85 85 85 85 86 86 86 85 84 84 84 83 82 83 82 82 81 81
61 69 74 76 76 78 74 74 72 71 68 70 66 58 52 57 56 56 54 49 52 73 66 71 81 82 85 86 80 80 82 83 84 84 84 84 84 84 86 86 87 86 85 84 84 83 83 83 83 85 85 86 86 85 84 84 83 83 83 83 83 81 81
50 58 62 65 72 74 71 71 73 73 74 72 65 64 56 59 58 60 50 46 52 72 66 71 70 76 82 80 79 82 82 83 84 84 84 84 83 83 84 84 84 84 84 82 82 82 82 83 84 84 85 85 86 85 85 84 84 84 84 84 83 82 81
34 41 41 43 48 56 64 74 74 74 72 69 64 60 55 49 51 56 54 46 60 71 68 71 71 72 75 78 79 83 84 83 84 83 83 82 82 81 83 83 82 82 82 82 81 81 82 83 84 83 84 85 86 86 85 86 85 84 84 84 83 82 82
38 42 46 55 58 59 55 63 72 73 73 73 70 56 50 53 47 56 54 59 65 69 68 70 70 71 72 73 76 79 81 83 84 83 82 82 81 81 83 82 83 82 80 80 81 81 83 84 84 84 85 86 86 85 85 86 86 85 84 84 83 82 82
48 52 51 56 58 55 59 60 65 73 73 71 68 63 60 52 54 49 53 57 67 65 60 64 67 70 68 72 76 79 81 82 83 83 82 82 82 83 83 82 81 80 80 81 81 81 82 83 84 85 86 86 86 85 85 86 86 86 86 84 83 82 82
50 52 54 58 59 61 63 65 64 69 73 71 66 63 64 58 57 52 54 56 61 65 63 66 68 68 73 75 77 81 83 83 83 82 82 82 82 82 82 81 81 81 80 80 80 81 82 84 84 84 85 86 86 86 86 86 87 86 85 84 83 82 81
49 52 55 60 59 62 64 64 65 66 72 71 71 68 66 65 56 59 58 57 65 71 68 69 73 69 71 73 78 80 81 82 82 82 81 83 83 83 82 82 82 81 81 81 81 81 81 83 83 84 84 84 85 86 86 87 86 87 85 83 82 82 81
45 52 57 58 58 58 59 63 65 65 66 72 73 71 69 66 64 66 63 58 62 67 67 71 72 69 71 74 76 79 81 82 83 82 83 84 84 83 83 82 82 82 81 82 81 81 81 82 83 84 84 85 86 87 87 87 86 87 86 83 83 82 81
41 52 53 53 56 57 59 58 61 63 65 63 70 69 69 65 59 63 60 57 59 65 70 69 69 70 72 71 71 75 79 82 82 82 83 84 83 84 84 84 83 81 81 80 80 81 82 83 84 84 84 85 85 86 87 87 88 88 86 84 83 82 82
38 49 51 51 52 53 51 56 62 64 64 64 66 72 72 70 64 62 56 58 64 68 68 71 69 73 70 71 72 71 74 79 83 83 84 84 85 84 84 83 82 82 83 82 82 83 84 85 85 86 86 86 85 86 86 87 88 88 86 85 83 82 82
38 46 49 50 48 42 45 60 68 66 64 63 58 59 64 64 65 62 64 68 66 68 70 74 71 76 74 73 74 73 77 77 80 84 84 84 85 85 86 85 84 84 83 83 83 84 85 86 88 88 88 87 87 88 89 88 88 87 86 85 84 83 82
37 44 46 45 41 45 55 66 67 68 68 66 63 62 64 65 65 65 64 66 68 70 71 77 77 73 72 73 73 75 76 77 78 78 79 81 81 83 83 82 83 82 82 82 82 82 84 86 87 88 87 88 88 88 88 87 88 86 86 85 84 83 82
43 39 39 36 42 51 61 63 67 68 69 66 64 60 63 65 65 65 62 64 67 73 73 73 74 74 75 76 75 74 75 79 81 80 79 79 81 82 82 82 81 80 82 82 83 83 84 85 86 88 87 88 87 87 88 88 87 87 86 85 84 83 82
35 39 38 39 49 52 56 56 59 62 57 59 58 52 56 64 65 65 63 64 66 69 72 75 72 75 76 72 72 77 76 74 77 81 79 82 81 80 79 83 81 81 83 83 84 83 82 84 86 87 87 87 87 87 87 88 87 87 86 85 84 83 83
43 37 35 36 38 37 44 55 62 67 68 67 69 61 55 65 66 68 65 64 65 67 69 69 71 76 69 64 66 74 77 78 78 78 79 78 78 78 78 78 79 79 79 81 82 84 82 83 85 86 86 86 85 84 86 87 87 86 86 85 84 83 83
42 39 35 34 34 43 50 51 59 64 67 67 67 59 51 63 65 66 67 65 66 67 68 68 70 69 62 61 67 73 76 77 79 78 78 79 79 78 78 78 77 77 77 79 80 79 80 80 80 81 85 86 85 84 84 86 86 85 85 85 84 83 84
41 39 36 32 40 38 47 55 59 64 67 68 62 48 47 62 65 66 67 66 65 67 68 69 68 66 62 62 68 75 77 78 77 77 76 77 78 79 79 79 77 77 78 79 78 77 75 74 76 78 80 83 84 84 83 85 85 84 85 85 85 84 84
41 42 38 42 41 50 53 55 59 64 67 64 49 40 51 62 64 65 66 66 66 67 66 67 64 65 67 70 74 78 78 78 77 78 79 78 78 78 78 78 80 78 77 77 76 76 75 76 76 76 77 79 79 79 79 81 82 84 85 84 82 82 83
38 41 39 40 46 51 55 57 61 65 61 46 44 57 65 65 64 65 66 65 66 67 66 67 67 69 73 75 77 76 76 76 75 76 77 78 78 79 79 80 79 77 78 77 77 78 76 77 76 75 75 75 74 75 75 77 81 83 80 80 80 81 82
46 45 40 36 32 48 55 57 58 60 51 51 58 62 65 67 65 64 64 65 66 67 66 68 68 70 71 72 73 75 75 75 74 74 75 74 75 75 76 76 78 78 75 75 75 75 76 76 76 74 74 75 75 75 74 77 79 79 79 79 79 80 81
39 40 39 38 50 53 58 55 48 53 56 58 60 63 61 65 65 63 63 64 65 67 66 67 68 69 69 70 71 72 73 74 74 75 75 75 75 75 76 76 76 76 74 74 73 74 74 75 75 75 74 74 75 75 75 76 76 79 79 79 79 79 80
44 42 47 54 56 59 59 58 56 57 58 61 63 61 63 60 62 65 62 62 65 66 66 66 67 67 68 69 70 70 71 72 72 72 72 73 73 74 73 74 75 74 72 72 72 73 74 74 75 75 75 72 73 74 73 75 75 78 79 79 79 79 79
53 57 58 60 60 61 58 60 59 58 57 60 63 59 60 61 61 64 62 61 63 65 65 63 65 66 67 68 68 69 70 71 71 71 72 72 73 73 73 73 73 72 72 72 72 72 73 73 74 75 75 74 73 74 75 76 77 78 79 78 78 79 79
44 38 54 56 57 60 60 60 61 61 60 57 59 58 59 62 61 61 64 63 63 62 65 64 63 64 66 66 67 68 68 68 69 70 69 70 70 70 70 72 73 71 71 71 71 71 71 72 73 74 75 75 75 75 75 75 76 77 78 78 79 78 78
44 44 52 55 58 58 60 59 58 58 58 57 59 62 60 61 64 63 61 64 64 64 62 63 63 64 64 64 64 66 67 67 67 68 69 69 70 70 70 71 72 70 70 69 69 69 70 71 72 74 74 75 75 75 76 76 75 77 77 77 78 78 79
47 52 53 54 57 57 58 59 60 60 60 57 58 60 61 61 61 62 62 63 63 63 63 63 63 63 63 64 64 65 66 67 67 67 68 68 68 69 70 70 71 69 68 69 68 69 70 70 72 74 74 74 74 75 75 75 74 76 76 77 77 77 78
41 44 48 53 46 46 53 55 57 58 60 61 58 58 58 59 58 59 59 61 63 64 64 63 63 62 62 63 63 64 65 66 66 66 66 67 67 67 69 69 69 70 70 68 68 68 69 70 71 72 73 74 74 75 74 75 74 75 75 76 76 77 77
41 50 53 55 53 51 52 54 56 58 59 59 58 57 57 58 59 60 59 59 60 61 62 63 63 62 62 62 63 63 64 65 66 66 66 66 67 67 68 68 68 68 67 69 67 69 69 69 70 70 71 72 73 73 74 73 74 73 74 75 75 75 76
49 52 54 55 53 50 52 56 56 57 57 58 59 59 58 58 58 59 60 61 59 59 60 62 64 63 63 63 64 63 64 65 66 67 67 68 67 68 68 67 67 67 67 67 67 68 68 69 69 70 70 71 71 73 73 73 73 72 72 73 72 72 72
47 53 55 55 54 54 55 56 57 57 58 59 58 57 58 58 58 60 60 60 61 60 60 60 63 64 63 63 64 63 63 65 67 69 69 69 70 69 68 69 68 67 67 67 68 68 68 68 69 69 69 70 71 73 72 73 73 72 72 72 71 71 72
MSLP
1000.40 1000.12 999.72 1000.32 1000.12 1006.80 1003.44 1003.68 1005.68 1003.68 1001.80 1003.40 1006.04 1006.48 1005.40 1005.40 1006.52 1007.84 1004.56 1004.20 1003.40 1001.00 1000.96 999.24 998.68 999.12 999.64 999.84 999.76 999.96 1000.48 1000.76 1001.16 1001.80 1001.84 1001.88 1001.96 1002.16 1002.36 1002.60 1002.80 1003.08 1003.44 1003.68 1003.88 1004.36 1004.80 1005.12 1005.52 1005.72 1005.96 1006.16 1006.52 1007.08 1007.72 1008.28 1008.68 1009.00 1009.40 1009.64 1009.96 1010.24 1010.60
999.40 998.32 998.68 999.08 999.04 999.60 1002.28 1004.96 1002.44 1000.80 1000.04 1001.60 1004.88 1008.68 1007.20 1007.56 1009.52 1007.72 1005.56 1005.88 1004.92 1004.72 1006.12 999.80 999.08 999.28 1000.00 1000.72 1000.16 999.84 1000.00 1000.52 1001.44 1001.44 1001.32 1001.28 1001.40 1001.40 1001.32 1001.44 1001.80 1002.32 1002.68 1003.04 1003.28 1003.68 1004.08 1004.40 1004.76 1005.16 1005.48 1005.60 1006.00 1006.44 1007.00 1007.80 1008.40 1008.96 1009.12 1009.36 1009.76 1010.04 1010.48
999.04 997.88 999.04 1000.36 998.64 997.84 1000.40 1001.24 998.80 1002.72 1006.72 1007.00 1004.44 1005.92 1009.68 1009.84 1010.00 1008.60 1006.84 1005.12 1004.92 1004.12 1004.00 1000.96 1000.48 1000.00 999.64 1000.80 1000.16 999.96 1000.52 1000.88 1000.92 1000.80 1000.72 1000.56 1000.52 1000.88 1001.48 1002.00 1002.36 1002.60 1002.84 1002.92 1003.00 1003.24 1003.44 1003.80 1004.16 1004.44 1004.80 1005.24 1005.80 1006.24 1006.60 1007.00 1007.68 1008.00 1008.44 1008.88 1009.32 1009.76 1010.04
999.44 999.08 999.96 1003.88 1001.72 998.68 998.00 998.36 1000.00 999.20 1001.56 1004.12 1006.28 1004.72 1005.68 1005.96 1009.28 1008.84 1007.88 1006.32 1006.60 1002.96 1002.16 1000.60 1000.00 998.72 998.40 999.76 1000.68 1000.12 999.80 1000.08 1000.16 1000.12 1000.12 1000.40 1000.80 1001.16 1001.48 1001.76 1001.88 1002.00 1002.16 1002.28 1002.44 1002.80 1003.32 1003.68 1004.04 1004.32 1004.76 1005.12 1005.64 1005.92 1006.40 1006.84 1007.12 1007.64 1008.20 1008.68 1009.00 1009.52 1009.72
1000.28 1002.52 1000.28 1001.52 1000.76 1001.88 1001.44 1001.32 1001.80 1001.08 1001.32 1000.76 1001.48 1002.64 1004.00 1005.88 1007.60 1008.00 1007.88 1008.80 1005.44 1001.68 999.20 999.24 998.68 997.96 997.52 998.24 999.84 999.40 998.96 998.88 998.92 999.00 999.28 999.72 1000.00 1000.40 1000.80 1001.12 1001.40 1001.68 1001.92 1002.08 1002.16 1002.28 1002.60 1003.00 1003.44 1003.92 1004.40 1004.80 1005.08 1005.52 1006.08 1006.44 1007.12 1007.60 1007.96 1008.16 1008.56 1008.96 1009.32
1003.80 1001.80 998.56 998.04 998.64 998.96 999.92 1000.80 1001.96 1000.96 1002.36 1004.36 1005.72 1006.64 1002.56 1003.08 1004.96 1007.12 1007.48 1007.60 1003.32 999.44 997.12 997.48 997.36 996.72 996.44 996.60 998.16 998.76 998.32 998.12 998.16 998.24 998.40 998.68 999.48 999.60 999.84 1000.20 1000.68 1001.20 1001.56 1001.76 1001.92 1002.12 1002.56 1003.20 1003.72 1004.00 1004.08 1004.44 1005.00 1005.40 1005.64 1006.12 1006.60 1007.04 1007.44 1007.88 1008.12 1008.48 1008.88
1004.20 1000.92 998.56 997.40 996.76 997.24 998.04 998.88 1000.56 999.44 1000.24 1001.36 1003.80 1007.00 1005.00 1003.04 1003.04 1002.48 1003.72 1005.40 1002.96 996.88 996.00 996.08 996.36 995.84 995.64 995.56 997.08 997.80 997.80 997.56 997.48 997.52 997.64 997.92 998.08 998.72 999.16 999.68 1000.16 1000.52 1000.92 1001.28 1001.64 1002.12 1002.48 1002.84 1003.24 1003.56 1003.92 1004.28 1004.56 1004.84 1005.28 1005.72 1006.20 1006.56 1006.72 1007.12 1007.44 1007.96 1008.48
1002.32 1000.04 998.72 997.88 997.56 997.40 998.52 998.40 998.20 999.32 1000.80 1000.08 1001.16 1002.12 1002.64 1003.72 1003.64 1004.72 1004.64 1006.00 1002.76 996.64 996.48 996.08 995.24 994.84 994.56 994.60 996.04 996.76 996.96 996.88 997.04 997.24 997.56 997.84 998.32 998.36 998.44 998.88 999.40 999.88 1000.44 1001.04 1001.72 1002.28 1002.56 1002.80 1003.16 1003.40 1003.56 1003.76 1004.08 1004.56 1004.92 1005.36 1005.84 1006.08 1006.44 1006.76 1007.24 1007.76 1008.20
1003.48 1001.60 999.76 999.48 997.60 997.96 998.56 998.92 998.28 998.08 998.20 998.88 999.52 999.60 1000.80 1003.28 1003.12 1003.16 1004.88 1007.12 1003.48 996.64 995.44 994.88 995.96 995.52 994.84 995.04 995.68 995.60 996.48 996.60 996.80 997.08 997.12 997.40 997.76 998.32 998.92 999.36 999.64 1000.12 1000.76 1001.36 1001.72 1001.84 1002.12 1002.36 1002.60 1002.92 1003.16 1003.44 1003.84 1004.20 1004.48 1004.88 1005.12 1005.40 1005.88 1006.28 1006.88 1007.32 1007.72
1009.80 1006.40 1005.44 1005.08 1004.72 1002.76 1000.56 997.40 997.52 997.60 998.32 999.40 1000.44 1002.76 1002.80 1004.08 1002.84 1002.52 1003.60 1004.08 1000.44 996.96 996.28 995.00 995.24 995.48 995.16 994.68 995.04 995.12 995.08 995.84 996.52 996.88 997.20 997.44 997.88 998.44 998.72 999.16 999.80 1000.36 1000.40 1000.68 1001.24 1001.56 1001.76 1001.92 1002.16 1002.48 1002.72 1003.04 1003.36 1003.64 1003.88 1003.96 1004.60 1005.08 1005.48 1005.80 1006.28 1006.88 1007.36
1011.40 1009.96 1008.48 1005.80 1005.28 1004.00 1004.00 1001.32 998.20 997.92 997.80 997.92 998.80 1000.04 1002.44 1003.44 1002.32 1003.12 1001.56 1001.04 1000.56 998.36 997.40 995.84 995.60 995.32 995.48 995.72 995.80 995.80 995.96 995.64 995.56 996.12 996.84 997.44 997.84 998.16 998.52 998.96 999.28 999.60 1000.32 1000.72 1000.76 1001.00 1001.16 1001.40 1001.64 1001.96 1002.36 1002.68 1002.96 1003.32 1003.72 1003.88 1004.12 1004.56 1004.92 1005.36 1005.88 1006.48 1006.96
1009.12 1007.92 1007.32 1005.56 1005.20 1005.28 1003.32 1002.24 1000.48 997.16 997.56 998.00 999.08 1000.76 1001.56 1000.56 1001.56 1004.24 1001.28 999.76 1000.08 999.04 997.36 996.16 996.00 995.76 995.84 995.64 995.48 995.52 995.48 995.64 995.76 996.12 996.56 997.08 997.68 997.92 998.12 998.64 999.16 999.68 999.80 1000.00 1000.48 1000.68 1000.92 1001.16 1001.32 1001.68 1001.88 1002.12 1002.48 1002.88 1003.32 1003.48 1003.80 1004.28 1004.64 1005.08 1005.52 1006.00 1006.48
1008.08 1007.00 1006.16 1004.80 1003.88 1002.88 1001.52 1000.44 999.80 998.32 996.96 997.84 999.32 999.72 999.16 999.64 1000.52 1002.24 1000.36 999.68 1000.16 998.80 997.00 995.60 995.20 995.24 995.16 995.28 995.28 994.64 994.36 994.76 995.28 995.96 996.64 997.16 997.60 997.88 998.40 998.56 998.76 999.08 999.56 999.84 1000.04 1000.28 1000.48 1000.76 1001.20 1001.44 1001.72 1001.96 1002.16 1002.48 1002.76 1003.08 1003.36 1003.76 1004.08 1004.80 1005.32 1005.72 1006.16
1007.88 1006.36 1005.12 1003.48 1003.40 1001.96 1000.80 1000.20 999.16 998.36 996.84 997.20 997.76 998.48 998.56 998.80 998.56 998.32 998.28 999.04 998.52 997.00 996.00 995.40 994.32 994.48 995.04 994.52 994.08 994.28 994.92 995.36 995.52 996.00 996.60 996.92 997.20 997.76 998.08 998.28 998.52 998.72 998.84 999.04 999.32 999.68 1000.20 1000.52 1000.76 1001.08 1001.36 1001.56 1001.72 1002.08 1002.36 1002.56 1002.92 1003.20 1003.72 1004.48 1005.04 1005.44 1005.80
1007.96 1005.64 1004.16 1003.60 1003.00 1002.80 1001.80 999.56 998.52 997.96 997.52 996.56 996.88 997.64 997.72 998.48 998.56 997.40 998.36 998.80 998.80 996.24 994.52 994.52 994.36 994.68 994.48 994.52 994.96 994.96 994.76 994.96 995.52 995.96 996.40 996.52 996.80 997.12 997.32 997.60 997.88 998.20 998.48 998.72 999.08 999.48 999.80 1000.00 1000.20 1000.40 1000.60 1000.84 1001.12 1001.56 1001.84 1002.16 1002.56 1002.80 1003.32 1004.08 1004.56 1004.92 1005.28
1008.76 1005.40 1005.00 1004.60 1003.36 1002.32 1001.24 999.56 998.44 997.68 997.24 998.40 997.28 998.08 997.36 998.20 999.32 998.32 999.52 1000.04 999.64 996.36 995.40 995.92 995.36 995.08 994.92 995.44 995.52 995.40 995.20 994.88 995.16 995.84 996.00 996.12 996.36 996.64 996.84 996.96 997.32 998.00 998.48 998.96 999.32 999.40 999.44 999.56 999.76 1000.04 1000.36 1000.60 1000.92 1001.24 1001.36 1001.76 1002.04 1002.32 1002.92 1003.48 1004.00 1004.40 1004.68
1009.52 1006.36 1006.08 1005.44 1004.52 1002.16 1001.08 1000.96 1000.08 998.92 997.84 997.52 996.36 996.20 996.32 997.00 997.16 999.08 1000.44 999.48 996.44 995.28 995.76 996.20 996.16 995.36 995.36 995.52 995.68 995.48 995.36 994.72 994.80 995.32 995.56 995.72 995.84 996.00 996.20 996.60 997.16 997.52 997.88 998.24 998.60 998.76 998.96 999.12 999.36 999.32 999.48 1000.12 1000.52 1000.56 1000.96 1001.16 1001.52 1002.04 1002.60 1003.04 1003.52 1003.96 1004.20
1009.48 1007.52 1006.60 1005.48 1004.36 1004.40 1003.24 999.80 999.00 999.32 999.72 999.80 1001.64 1002.32 1001.20 1000.60 1000.32 999.00 997.40 995.96 995.12 995.72 996.48 995.64 996.24 995.28 995.64 995.20 995.16 994.76 994.28 994.92 994.92 994.64 994.84 995.20 995.44 995.56 995.68 995.96 996.48 996.80 997.16 997.68 998.00 998.12 998.20 998.20 998.28 998.44 998.76 999.24 999.48 999.72 1000.12 1000.60 1001.08 1001.52 1002.12 1002.56 1003.00 1003.44 1003.72
1010.08 1008.00 1007.00 1005.48 1005.36 1003.48 1000.72 999.44 999.12 999.44 999.28 999.72 1000.28 1000.96 1000.48 1000.28 999.92 999.72 998.12 997.72 995.44 995.16 995.76 994.76 994.72 995.24 995.72 995.60 995.64 995.28 994.68 994.08 994.56 994.96 995.12 995.20 995.32 995.60 995.80 996.16 996.32 996.60 996.92 997.28 997.72 998.04 998.12 998.00 998.08 998.36 998.76 998.80 999.16 999.64 999.88 1000.40 1000.64 1001.16 1001.56 1002.00 1002.52 1002.88 1003.32
1009.04 1008.84 1008.36 1006.76 1004.48 1002.68 1001.32 1000.00 999.48 999.48 999.04 999.60 999.32 1000.28 1001.32 1001.36 1001.36 1000.96 1000.52 999.16 998.00 995.32 995.40 995.60 995.44 995.76 995.64 995.28 995.76 995.68 995.20 994.20 994.24 994.72 995.24 995.24 995.20 995.68 995.72 995.92 996.16 996.48 996.76 997.08 997.36 997.56 997.40 997.76 998.04 998.16 998.52 998.60 999.16 999.52 999.52 999.96 1000.36 1000.68 1001.08 1001.60 1002.00 1002.36 1002.80
1010.24 1008.96 1009.48 1007.40 1004.80 1003.28 1002.28 1001.68 1001.80 1002.40 1003.44 1002.80 1002.16 1003.88 1004.08 1002.04 1001.36 1001.00 1000.76 999.84 998.72 997.24 996.28 995.76 995.88 995.20 995.12 996.60 997.32 996.24 995.92 995.20 994.36 994.32 994.72 994.76 995.16 995.28 995.44 995.32 995.72 995.72 995.84 996.32 996.60 996.96 997.36 997.56 997.88 998.08 998.12 998.44 998.84 999.28 999.68 999.84 1000.12 1000.48 1000.80 1001.28 1001.60 1001.84 1002.24
1008.76 1009.96 1009.40 1007.88 1006.52 1006.64 1005.92 1004.44 1002.48 1001.48 1001.32 1001.08 999.96 1001.04 1003.44 1001.56 1001.36 1000.64 1000.80 1000.52 999.88 998.56 997.12 996.96 995.96 994.84 997.24 1000.20 999.92 997.68 996.64 995.72 995.56 995.28 995.36 995.48 995.56 995.60 995.72 995.64 995.84 995.96 996.16 996.28 996.48 996.80 997.28 997.48 997.48 997.60 997.88 998.28 998.76 999.24 999.52 999.64 1000.00 1000.32 1000.60 1000.88 1001.00 1001.36 1001.64
1009.32 1010.16 1010.44 1010.04 1008.56 1006.24 1006.04 1005.28 1003.24 1001.52 1000.16 1000.16 1000.08 1001.56 1004.88 1002.72 1002.00 1001.48 1001.04 1001.00 1000.24 999.40 998.68 997.68 996.36 997.68 1001.32 1002.00 1000.32 998.24 997.28 996.48 995.72 995.92 996.12 996.08 996.24 996.32 996.36 996.40 996.68 996.64 996.64 996.72 996.96 997.16 997.40 997.88 997.80 997.52 997.60 998.04 998.64 999.16 999.32 999.48 999.68 1000.12 1000.28 1000.32 1000.48 1000.84 1001.12
1009.88 1009.88 1010.36 1010.60 1008.80 1008.68 1007.00 1005.28 1003.32 1001.44 999.88 998.88 999.60 1004.12 1007.08 1003.60 1002.68 1002.12 1001.52 1001.40 1000.92 1000.12 999.20 998.36 998.44 999.84 1001.88 1002.04 1000.24 998.16 997.48 996.80 996.44 996.40 996.68 996.72 996.72 996.84 996.76 996.80 996.92 996.96 996.88 997.08 997.64 998.08 998.28 998.24 997.84 997.64 997.84 998.08 998.40 998.84 999.04 999.12 999.60 999.76 999.64 999.56 999.68 1000.00 1000.40
1009.64 1009.76 1009.56 1008.52 1007.84 1007.12 1006.52 1005.24 1003.40 1001.48 999.80 999.92 1004.12 1008.56 1006.96 1004.16 1003.40 1002.60 1002.04 1001.56 1001.12 1000.44 1000.04 999.40 1000.56 1000.92 1000.00 999.48 998.72 997.92 997.36 996.92 996.96 996.72 996.60 996.96 997.00 997.28 997.32 997.40 997.08 997.28 997.52 997.72 998.12 998.44 998.60 998.32 998.12 997.96 997.96 998.40 998.80 998.84 998.96 999.24 999.32 998.96 998.80 999.00 999.32 999.60 999.96
1010.28 1009.76 1009.56 1008.64 1007.92 1007.32 1006.32 1004.92 1003.56 1001.28 1001.24 1006.00 1007.92 1005.56 1003.84 1003.80 1003.60 1002.84 1002.24 1001.92 1001.24 1000.64 1000.64 1000.56 1000.76 1000.68 999.80 999.20 998.60 998.28 997.92 997.80 997.76 997.60 997.52 997.40 997.44 997.44 997.44 997.40 997.48 997.72 997.80 997.96 998.00 998.24 998.56 998.56 998.64 998.52 998.40 998.76 998.88 998.92 999.20 999.32 998.76 998.36 998.56 998.80 999.08 999.44 999.72
1008.96 1009.08 1009.44 1009.20 1010.32 1007.44 1006.56 1005.00 1003.96 1003.36 1004.96 1006.72 1005.40 1004.68 1004.08 1003.44 1003.52 1003.12 1002.68 1002.16 1001.76 1001.12 1001.24 1000.84 1000.84 1000.60 1000.36 1000.20 999.80 999.12 998.60 998.36 998.52 998.40 998.32 998.44 998.56 998.60 998.44 998.28 997.96 998.00 998.44 998.68 998.88 998.92 998.72 998.68 998.76 998.84 998.76 998.92 998.88 998.92 999.12 998.68 998.48 998.48 998.52 998.68 998.88 999.20 999.48
1009.60 1009.00 1009.20 1009.80 1007.92 1007.32 1006.36 1005.76 1007.56 1007.04 1006.60 1005.84 1005.00 1004.64 1004.68 1003.84 1003.56 1003.48 1003.20 1002.64 1002.20 1001.80 1001.68 1001.64 1001.32 1001.04 1000.92 1000.72 1000.52 1000.12 999.60 999.12 998.88 998.76 998.72 998.72 998.72 998.80 998.76 998.80 998.80 998.56 998.92 999.08 999.28 999.24 999.12 998.92 998.76 998.84 998.96 999.00 998.92 998.88 998.72 998.20 998.20 998.12 998.20 998.48 998.76 999.08 999.32
1010.00 1009.44 1008.44 1007.32 1006.52 1006.12 1006.44 1006.12 1006.68 1006.72 1006.40 1005.52 1005.16 1005.04 1004.60 1004.88 1004.48 1003.52 1003.56 1003.48 1002.72 1002.36 1002.36 1002.08 1001.80 1001.60 1001.40 1001.40 1001.08 1001.08 1000.80 1000.36 1000.04 999.84 999.72 999.52 999.48 999.44 999.48 999.40 999.20 999.20 999.44 999.60 999.48 999.36 999.28 999.12 999.12 999.12 998.96 999.00 998.84 998.84 998.36 998.00 998.08 998.12 998.20 998.40 998.76 999.08 999.24
1008.28 1007.32 1006.92 1006.56 1006.04 1006.04 1006.64 1006.24 1006.48 1006.60 1006.44 1005.80 1005.20 1005.44 1005.36 1005.08 1004.96 1004.12 1004.32 1004.36 1003.76 1003.00 1002.76 1002.76 1002.32 1002.32 1002.08 1001.72 1001.48 1001.20 1000.92 1000.68 1000.36 1000.12 1000.04 1000.00 999.88 999.84 999.80 999.76 999.72 999.80 999.72 999.72 999.76 999.88 999.68 999.48 999.44 999.32 999.20 999.08 999.08 998.80 998.24 997.96 997.76 997.88 998.00 998.36 998.68 998.88 999.04
1009.16 1009.08 1007.20 1007.00 1007.12 1006.72 1006.60 1006.52 1006.24 1006.20 1006.32 1006.40 1005.96 1005.72 1005.56 1005.40 1005.04 1004.76 1004.36 1004.32 1004.32 1003.96 1003.24 1003.12 1003.04 1002.84 1002.52 1002.32 1001.96 1001.52 1001.16 1000.92 1000.56 1000.20 1000.28 1000.28 1000.28 1000.28 1000.44 1000.32 1000.12 1000.20 1000.16 1000.36 1000.52 1000.48 1000.44 1000.08 999.84 999.52 999.24 998.96 998.84 998.52 998.24 997.88 997.68 997.72 998.00 998.20 998.48 998.76 999.00
1009.64 1008.96 1007.96 1007.16 1006.88 1006.84 1006.60 1006.56 1006.56 1006.56 1006.80 1006.80 1006.28 1005.76 1005.76 1005.64 1005.16 1004.88 1004.92 1004.60 1004.44 1004.00 1003.92 1003.60 1003.36 1003.12 1002.96 1003.00 1002.80 1002.40 1002.16 1001.84 1001.36 1000.80 1000.52 1000.48 1000.36 1000.24 1000.16 1000.16 1000.08 1000.28 1000.40 1000.60 1000.68 1000.56 1000.48 1000.20 999.80 999.52 999.28 999.12 998.84 998.52 998.16 997.88 997.76 997.76 998.04 998.20 998.44 998.68 998.84
1009.12 1008.52 1007.52 1006.96 1006.52 1006.40 1006.52 1006.56 1006.40 1006.36 1006.40 1006.96 1007.00 1006.36 1005.96 1005.80 1005.88 1005.76 1005.72 1005.20 1004.88 1004.44 1004.28 1003.84 1003.64 1003.48 1003.12 1003.08 1002.96 1002.72 1002.48 1002.32 1001.96 1001.56 1001.08 1000.88 1000.88 1000.76 1000.68 1000.60 1000.40 1000.56 1000.60 1000.68 1000.64 1000.56 1000.40 1000.08 999.84 999.68 999.52 999.32 998.96 998.68 998.36 998.08 997.84 998.04 998.16 998.24 998.32 998.56 998.68
1010.00 1009.52 1008.12 1007.64 1008.64 1008.24 1007.12 1006.60 1006.48 1006.28 1006.08 1006.24 1006.80 1006.92 1006.60 1006.20 1006.20 1006.12 1006.32 1005.92 1005.08 1004.52 1004.20 1004.04 1003.96 1003.96 1003.64 1003.24 1003.08 1003.08 1002.88 1002.80 1002.52 1002.08 1001.76 1001.52 1001.32 1001.08 1000.76 1000.56 1000.52 1000.56 1000.56 1000.60 1000.72 1000.68 1000.52 1000.08 999.96 999.88 999.76 999.48 999.16 998.80 998.48 998.24 998.04 998.16 998.24 998.32 998.48 998.68 998.72
1009.52 1008.24 1007.60 1007.60 1007.72 1007.40 1006.72 1006.60 1006.36 1006.12 1006.04 1006.12 1006.28 1006.84 1007.00 1006.44 1006.00 1005.96 1006.12 1006.08 1005.64 1005.08 1004.56 1004.28 1004.32 1004.36 1004.16 1003.92 1003.48 1003.32 1003.16 1002.84 1002.44 1002.20 1001.96 1001.80 1001.48 1001.20 1000.84 1000.80 1000.84 1000.88 1000.84 1000.80 1000.88 1000.88 1000.76 1000.20 1000.04 1000.08 999.88 999.68 999.40 999.00 998.72 998.48 998.28 998.28 998.32 998.48 998.68 998.84 998.96
1008.72 1008.24 1007.68 1007.40 1007.60 1007.76 1007.20 1006.72 1006.40 1006.08 1005.88 1006.00 1006.16 1006.00 1006.08 1006.24 1006.04 1005.56 1005.52 1005.44 1005.56 1005.32 1004.92 1004.64 1004.36 1004.28 1004.12 1003.84 1003.68 1003.60 1003.12 1002.64 1002.28 1002.00 1001.80 1001.68 1001.56 1001.28 1001.00 1001.00 1001.12 1001.20 1001.24 1001.20 1001.16 1001.00 1000.64 1000.44 1000.24 1000.16 1000.08 999.84 999.64 999.28 998.96 998.68 998.40 998.44 998.56 998.68 999.00 999.24 999.32
1008.68 1007.84 1007.40 1007.16 1007.32 1007.28 1007.00 1006.60 1006.28 1006.08 1006.12 1006.12 1006.08 1006.08 1005.96 1005.92 1005.80 1005.52 1005.40 1005.12 1004.88 1005.00 1005.04 1004.80 1004.28 1003.84 1003.76 1003.60 1003.40 1003.36 1003.28 1002.80 1002.40 1002.12 1002.04 1001.92 1001.68 1001.36 1001.08 1001.00 1001.08 1001.16 1001.08 1000.96 1000.84 1000.76 1000.64 1000.56 1000.48 1000.36 1000.32 1000.04 999.72 999.44 999.16 998.96 998.56 998.72 998.88 998.96 999.20 999.48 999.64
Wind_Speed
16 13 10 12 11 11 9 9 14 13 6 7 3 3 2 3 3 8 2 5 4 4 3 6 3 2 6 13 17 18 16 15 15 17 18 19 18 18 18 18 18 19 17 18 17 18 17 18 18 19 19 19 21 19 19 20 19 18 18 18 18 17 16
17 17 10 13 14 6 7 13 11 4 3 4 6 6 1 3 5 5 3 11 3 3 10 4 7 6 4 14 17 20 19 17 18 18 19 20 20 20 22 22 20 19 20 21 19 18 19 20 20 20 20 19 18 18 20 20 18 19 18 17 17 15 15
11 15 14 11 14 14 13 13 10 12 8 13 4 3 7 4 5 2 3 5 5 6 6 1 6 10 9 10 17 19 17 17 20 20 21 21 21 20 17 16 16 16 17 19 19 19 20 20 20 20 20 18 16 16 18 20 21 21 20 16 15 13 14
6 7 11 15 12 14 11 6 12 8 5 6 6 7 3 6 2 4 4 3 7 6 5 7 10 14 15 8 15 18 20 20 19 19 20 20 18 16 15 16 17 18 19 20 21 20 20 20 19 18 18 16 18 18 18 18 18 17 17 17 16 15 15
5 6 7 14 15 12 11 8 8 9 4 2 5 2 5 5 4 5 3 5 5 7 9 15 19 16 14 11 17 18 21 23 23 22 21 19 19 18 17 17 17 18 18 18 19 18 19 18 16 16 17 19 19 17 18 18 19 18 19 18 17 15 14
6 7 6 14 16 14 10 9 8 11 10 6 14 9 0 4 3 3 5 9 6 10 9 13 18 18 17 15 17 17 20 22 23 21 21 20 19 19 19 19 17 17 17 18 18 16 14 14 15 17 17 16 17 17 17 18 18 18 19 18 17 16 15
8 11 12 7 12 14 10 10 9 11 7 5 8 9 7 5 5 3 4 2 7 9 7 12 15 15 16 15 16 18 18 21 22 21 21 21 23 21 20 19 17 17 17 18 18 18 18 18 17 17 16 16 17 19 18 17 18 18 18 18 17 15 15
12 17 14 12 10 11 13 9 7 9 12 13 11 8 6 7 3 7 2 4 7 11 4 7 12 16 18 14 17 21 20 19 19 20 19 20 18 18 19 18 17 17 16 15 15 16 16 16 16 17 17 17 17 16 17 16 19 19 18 16 15 15 15
7 8 5 5 3 6 9 9 11 11 11 8 3 6 4 6 9 8 6 8 4 13 3 6 5 15 17 10 14 21 20 17 17 18 19 19 19 17 16 17 16 14 14 15 16 17 17 16 16 17 17 17 16 17 17 18 18 18 17 15 16 16 16
4 7 6 2 7 6 7 9 15 14 14 11 6 7 3 8 5 6 7 5 10 14 8 9 7 6 9 11 16 18 20 19 17 15 15 17 17 17 18 17 15 16 17 16 16 16 16 16 17 17 17 16 16 16 18 18 17 17 17 16 16 16 16
8 10 11 15 12 10 4 11 12 15 11 12 9 6 6 11 5 8 7 7 11 18 5 8 8 4 7 9 10 15 16 18 19 17 15 14 15 17 19 18 17 16 14 17 18 18 17 17 17 16 17 17 16 16 16 16 16 16 16 16 16 16 16
12 15 17 18 15 16 17 13 13 16 17 13 13 11 10 5 10 8 5 8 14 15 4 8 7 1 5 8 12 13 14 15 17 17 17 16 16 16 17 17 18 19 19 19 18 18 17 17 16 15 16 16 16 16 17 16 15 15 14 15 16 17 16
20 18 16 15 14 13 11 12 11 13 19 16 13 11 6 9 8 9 7 8 10 10 6 7 7 7 11 13 13 17 18 16 15 16 18 19 19 18 17 18 18 19 18 17 18 18 18 17 17 17 16 16 15 14 15 15 15 16 15 15 15 16 16
19 17 13 12 10 8 9 8 7 8 15 17 16 8 5 10 6 9 8 9 15 11 6 9 4 4 4 6 8 10 11 15 16 17 17 19 19 18 18 17 16 17 18 19 19 18 17 18 18 17 17 17 17 17 16 16 16 15 14 15 15 15 16
15 12 10 13 13 11 9 8 6 4 5 14 14 10 8 5 3 5 6 7 11 8 4 2 0 3 4 6 8 13 16 16 17 18 18 19 19 18 18 18 18 16 16 16 16 17 18 19 19 18 17 17 16 16 15 16 16 15 15 15 16 16 17
10 7 13 18 15 14 7 5 7 7 3 2 10 10 5 5 5 4 5 5 6 8 1 2 4 5 7 5 2 8 11 14 17 18 18 19 18 18 18 19 16 14 13 13 14 17 18 18 17 16 15 15 15 16 15 15 15 14 15 16 16 16 16
8 10 15 15 15 9 2 6 8 7 3 2 1 1 6 4 3 6 6 9 8 7 2 7 4 6 5 6 2 5 6 13 17 17 18 17 17 18 18 17 15 15 16 16 16 17 16 17 17 17 16 15 16 16 15 14 13 14 15 15 16 16 15
9 16 17 15 2 1 3 0 10 15 10 14 20 14 11 12 8 3 5 9 5 1 2 12 7 13 7 5 0 2 11 12 13 16 16 15 14 15 16 15 15 15 13 12 14 16 17 17 18 17 16 17 16 15 15 14 16 15 15 15 15 16 15
7 11 13 1 4 8 5 9 11 18 7 15 20 17 19 23 24 19 14 12 5 5 5 12 12 9 6 8 8 7 2 9 10 10 9 10 11 12 11 10 11 11 12 12 12 12 12 13 13 13 13 13 12 13 14 15 15 15 15 15 15 15 15
5 4 4 4 9 2 13 12 13 19 12 15 9 22 22 19 15 13 11 13 13 7 8 5 9 11 10 12 13 12 9 3 10 11 9 8 11 11 10 12 11 11 12 13 13 13 10 9 9 10 11 10 11 13 13 14 14 15 15 15 15 14 15
2 4 6 8 9 10 13 11 15 15 9 14 6 12 11 11 14 15 12 15 14 10 1 10 7 10 16 14 12 14 10 5 5 8 7 9 7 7 7 11 11 10 11 12 11 8 7 8 9 10 9 10 11 11 12 13 13 14 14 14 14 15 15
1 5 7 6 6 1 7 11 16 16 11 9 10 4 9 15 16 15 14 13 13 10 10 7 2 17 18 12 8 10 10 6 12 13 14 12 10 8 6 6 6 6 6 6 7 9 9 9 9 7 8 9 9 10 12 11 12 13 14 15 13 14 15
5 4 2 2 1 2 5 19 20 21 20 14 8 2 12 11 15 15 14 14 14 13 11 11 3 17 12 5 5 7 6 8 12 16 14 14 13 12 11 10 9 7 6 5 5 5 6 5 2 5 10 11 10 11 11 12 12 13 14 14 14 13 13
3 2 2 2 2 3 14 21 19 22 22 14 2 7 4 9 16 13 12 14 14 14 12 10 17 12 13 5 4 3 6 11 13 15 15 15 14 13 12 11 9 9 9 9 10 9 8 3 1 2 4 8 11 11 11 11 12 14 15 14 12 11 12
4 3 3 2 3 2 11 16 19 22 16 6 13 6 2 9 10 11 11 12 13 12 14 13 14 8 4 2 2 6 8 15 16 15 14 14 14 14 12 11 10 11 10 10 10 9 6 6 5 4 3 5 6 6 8 10 13 14 12 10 10 10 11
1 2 3 5 1 4 13 16 15 18 5 8 8 2 2 6 9 9 11 13 13 12 15 12 11 11 11 9 8 11 13 14 13 14 14 15 15 13 12 12 10 10 11 11 11 11 8 7 5 4 4 4 2 4 5 8 11 8 6 7 8 9 11
1 2 4 2 4 6 14 16 6 18 9 4 4 2 6 8 8 9 12 13 14 13 13 14 14 14 14 14 11 11 12 14 14 14 14 14 13 13 13 13 11 10 10 10 9 8 8 8 6 4 3 2 1 1 4 8 4 3 5 6 8 9 10
1 3 1 2 3 2 8 9 7 6 8 4 6 5 6 9 9 10 9 12 12 13 12 13 14 15 15 16 13 11 12 12 12 13 13 12 12 12 11 10 9 9 8 7 7 6 7 8 8 7 4 3 1 2 5 4 4 5 6 7 7 9 9
1 3 4 4 3 1 5 7 7 7 10 10 10 9 9 9 10 9 9 12 13 13 13 12 13 14 14 13 13 11 9 10 10 11 10 11 10 10 9 9 8 7 7 6 6 7 7 8 7 7 6 4 3 4 4 2 4 6 6 7 7 8 9
4 7 3 5 3 6 8 8 8 9 10 12 11 10 8 10 8 9 9 11 13 13 12 12 12 13 12 13 13 13 11 9 9 8 9 9 9 8 8 7 7 7 7 8 8 8 9 9 8 7 6 5 6 5 4 4 5 6 7 7 8 9 8
5 2 9 11 8 6 7 7 9 9 9 10 10 9 9 8 9 10 12 10 9 10 12 12 11 11 12 13 12 11 12 11 8 9 9 8 7 7 7 6 5 6 6 6 5 5 5 6 6 6 7 6 5 6 5 5 4 6 6 8 8 7 8
1 3 9 12 4 6 5 5 6 8 9 11 12 9 9 9 9 10 12 11 10 9 11 11 10 11 10 11 10 9 9 9 8 8 9 8 8 7 6 5 6 6 6 4 4 4 4 5 6 7 7 7 7 8 7 6 2 4 5 7 8 8 8
3 4 8 5 2 2 7 6 5 4 5 7 7 10 10 10 11 11 9 9 9 9 9 9 10 11 12 9 9 9 8 9 8 6 7 6 5 4 5 4 4 4 4 5 4 4 4 4 5 7 7 7 8 8 7 6 1 3 5 5 6 7 7
3 3 4 5 6 7 8 3 3 3 2 5 7 5 10 10 11 10 9 8 8 9 8 8 8 9 9 10 9 9 8 7 6 5 4 4 3 3 2 4 4 4 4 3 4 4 4 4 5 6 6 6 7 7 7 6 2 2 3 5 6 7 7
7 2 6 6 4 6 5 4 4 1 2 3 5 7 6 9 8 9 8 7 7 9 9 8 7 7 8 8 8 8 7 7 5 4 4 4 4 2 3 5 4 4 3 3 4 5 6 3 4 4 4 6 7 7 7 5 2 3 2 4 5 6 6
10 11 10 5 2 3 5 9 7 4 2 4 3 3 5 3 8 9 8 5 5 7 7 8 7 7 7 7 7 7 8 7 8 7 6 5 3 1 2 3 3 2 2 3 3 3 4 4 4 3 4 5 5 6 5 3 2 3 3 4 6 5 5
10 7 9 6 3 5 7 8 6 4 3 3 3 3 4 5 7 9 9 7 6 6 6 8 9 7 8 8 8 7 6 6 6 7 5 4 4 4 3 4 4 2 2 2 3 3 3 3 3 4 3 4 5 5 4 3 3 4 4 4 6 6 6
Wind_Direction
217 216 195 207 171 204 188 186 209 212 133 176 231 316 259 110 114 238 213 286 254 304 321 241 271 237 186 183 186 191 193 188 178 181 185 188 189 186 189 189 189 186 185 185 183 183 185 184 184 184 183 181 181 179 181 183 184 181 183 185 187 189 188
218 214 206 208 202 151 153 202 210 120 143 125 173 212 308 193 164 250 186 223 298 183 255 275 235 248 214 179 186 192 188 176 180 187 189 190 189 190 192 191 187 184 185 186 185 183 185 186 185 185 184 184 182 181 180 181 181 185 187 185 187 187 187
224 208 206 235 223 193 194 206 138 181 170 208 194 144 222 187 211 231 290 211 242 188 249 288 236 238 223 180 191 188 187 180 184 188 192 193 192 191 190 187 185 186 187 188 187 185 185 186 186 187 185 180 181 183 183 182 184 185 186 187 186 187 187
243 214 187 213 221 216 212 125 180 164 149 196 161 203 151 135 239 170 287 190 234 207 207 200 228 227 230 172 185 187 186 185 188 190 190 190 189 189 188 186 188 188 189 187 187 186 184 186 187 186 182 180 181 183 182 186 186 183 184 187 186 187 189
308 239 190 207 207 202 198 177 186 184 205 186 142 260 180 167 169 188 172 234 274 247 213 212 223 220 224 189 178 189 187 187 188 189 189 187 186 187 185 187 188 188 189 189 189 188 188 186 183 180 180 183 184 181 184 184 182 183 186 189 187 189 186
267 261 240 211 205 208 205 183 188 190 167 137 191 238 181 168 127 202 171 239 258 249 221 215 219 222 217 205 178 185 190 188 188 190 187 183 185 187 186 186 186 186 187 188 189 186 184 181 183 184 185 184 181 183 184 184 184 186 187 187 189 188 188
261 264 269 299 222 206 214 174 202 192 176 149 175 204 223 185 217 157 160 179 271 241 210 211 221 226 217 206 171 181 189 191 189 189 185 185 184 185 186 184 185 185 184 184 184 183 182 184 184 185 183 184 185 185 183 184 185 189 188 189 189 188 190
257 256 268 278 284 220 210 209 172 179 196 190 192 176 180 182 189 218 270 255 255 273 190 214 215 221 221 207 168 180 186 190 189 187 186 185 187 189 182 182 184 184 182 179 180 184 183 182 184 186 187 189 187 184 183 183 189 189 189 189 186 187 190
301 312 347 324 270 218 215 200 199 192 197 182 145 137 136 182 210 184 169 233 268 265 340 290 229 223 225 183 172 178 184 187 186 188 184 182 185 180 179 182 182 176 175 178 184 185 185 184 185 187 190 189 186 185 184 187 190 188 188 185 186 189 191
277 219 208 210 351 343 321 225 202 196 183 174 130 183 173 197 243 172 192 237 253 268 317 317 316 217 193 169 168 178 180 181 185 186 182 181 178 176 178 182 175 177 182 182 182 186 187 186 187 189 190 190 189 188 191 188 186 185 187 186 188 188 190
271 279 283 278 285 276 266 301 234 195 182 175 178 123 146 195 201 186 218 180 244 265 305 298 312 117 136 151 158 167 180 184 181 176 177 179 177 176 180 178 181 181 179 181 185 186 186 187 188 189 190 190 190 191 191 190 189 187 186 186 187 188 189
284 283 274 277 276 268 273 274 276 207 187 178 182 186 207 167 121 211 252 206 224 248 275 279 284 140 117 155 163 167 173 176 176 176 174 173 177 180 180 182 179 182 185 184 183 184 185 187 187 188 190 191 191 190 190 190 188 187 188 188 187 188 189
304 289 274 266 263 257 260 270 287 231 192 185 182 200 191 151 172 196 233 213 223 242 228 238 241 192 163 165 169 176 177 174 172 172 173 175 179 179 182 184 184 185 181 182 183 183 185 184 185 186 187 191 192 192 190 189 189 189 185 186 189 190 191
298 290 293 309 314 305 275 275 288 310 209 197 191 181 183 186 186 191 194 181 222 221 221 230 233 204 186 165 168 158 158 170 172 173 174 177 177 179 183 185 186 186 186 183 183 182 182 185 186 185 186 189 191 190 191 189 190 187 181 187 188 191 194
294 284 307 327 331 326 304 291 295 308 289 210 195 181 192 197 241 195 170 171 232 257 216 204 289 120 97 86 140 169 172 171 172 174 178 180 179 181 184 186 186 188 189 188 182 181 184 187 187 186 187 188 188 189 190 189 188 185 181 186 190 192 197
299 308 349 325 322 311 294 301 354 14 53 228 205 196 168 162 214 203 127 174 243 272 355 14 72 83 91 91 117 168 174 171 172 177 183 182 182 183 187 188 184 178 182 184 186 187 188 188 187 186 185 185 186 191 188 189 187 184 185 188 191 194 196
263 297 322 312 308 321 6 12 0 331 25 242 349 205 172 182 174 156 177 220 218 215 182 98 68 88 76 74 107 140 180 179 171 178 183 186 185 186 187 186 179 177 177 182 187 190 188 188 189 191 186 183 189 189 187 187 184 186 188 189 191 194 194
289 305 312 305 332 123 227 281 18 4 21 72 64 40 22 10 14 231 214 210 188 104 179 122 124 96 101 115 62 267 166 177 184 179 176 182 186 188 187 183 177 178 176 178 185 188 189 189 189 189 187 190 192 187 185 183 187 188 187 190 191 193 194
287 304 312 193 215 208 303 344 35 14 24 63 80 63 38 26 16 358 5 328 161 143 187 127 119 105 80 48 34 12 52 130 152 156 164 168 173 179 182 179 176 172 175 177 180 186 191 189 186 184 189 193 187 185 184 187 189 189 190 190 190 191 193
290 322 335 187 203 260 351 354 21 4 4 355 347 43 27 22 8 354 353 360 324 158 150 107 105 111 99 60 33 14 339 93 125 127 134 154 159 166 172 169 168 168 172 176 179 188 184 174 182 185 188 182 180 187 186 188 189 192 191 192 192 190 192
238 315 295 253 337 345 0 8 355 352 344 327 340 87 21 4 5 1 4 0 355 348 95 135 143 88 66 53 23 1 355 11 60 96 111 123 129 139 159 163 167 170 171 173 175 162 158 172 176 188 179 176 180 181 186 192 190 192 193 196 194 191 192
57 356 324 349 41 346 311 326 315 326 309 276 265 42 60 12 0 2 1 13 351 7 15 342 121 78 64 43 8 347 353 33 75 75 75 68 71 76 82 82 93 108 118 128 142 157 165 176 183 173 167 168 173 180 188 189 190 195 197 202 196 191 193
352 339 349 300 323 210 26 328 318 316 318 296 263 78 50 350 357 346 0 12 3 18 18 1 34 79 74 69 15 338 354 39 64 73 66 67 67 67 65 75 74 70 80 101 102 106 125 134 165 177 172 170 172 185 188 191 193 196 203 203 198 193 191
247 314 323 290 254 311 330 318 316 314 316 297 181 69 26 340 339 337 355 17 15 13 19 41 54 66 94 80 42 346 40 65 58 64 65 60 60 59 62 60 70 73 73 71 64 61 56 30 333 96 165 175 180 185 191 190 194 203 206 204 197 189 186
255 281 274 305 322 301 324 312 308 314 312 351 69 88 353 316 328 355 354 21 20 16 31 34 62 25 51 117 99 64 63 65 57 55 59 61 58 56 51 54 51 58 57 63 67 62 48 31 26 32 102 161 195 194 187 189 202 207 204 193 185 182 182
261 295 268 244 180 19 332 314 309 327 2 51 85 60 299 338 357 359 11 21 18 25 36 39 49 42 31 25 45 59 61 66 62 58 55 53 51 47 46 44 48 49 45 41 37 33 30 30 30 31 58 80 133 181 188 212 217 206 180 182 176 173 180
196 232 278 346 354 342 337 311 2 359 54 35 343 301 20 19 2 13 17 20 21 21 32 34 38 37 34 30 28 44 56 62 61 59 56 54 51 45 38 34 32 45 45 41 38 30 19 20 16 16 44 76 73 155 196 229 221 183 187 176 173 176 180
178 170 178 77 8 267 325 11 69 346 21 318 325 355 34 25 18 14 13 18 20 19 28 28 32 33 33 29 22 34 45 52 58 58 57 54 49 45 40 39 35 40 42 38 36 28 20 12 5 2 24 355 298 271 255 242 210 201 182 184 176 175 181
26 306 343 322 285 283 59 47 56 37 5 10 22 12 28 28 16 3 22 14 11 21 19 27 31 30 24 29 22 25 33 56 60 62 58 57 54 48 40 29 29 34 35 35 36 30 19 15 9 355 354 349 302 282 271 262 211 198 193 178 178 184 183
289 255 249 313 317 358 90 71 67 47 19 356 15 21 14 29 12 11 29 13 2 10 16 18 28 28 17 20 18 16 13 34 53 60 60 56 57 53 43 31 33 45 47 46 38 25 13 6 359 354 348 3 358 311 302 270 220 201 183 180 186 189 182
4 299 343 342 347 36 58 85 80 70 48 17 358 3 18 7 15 18 18 13 15 360 6 15 18 21 16 16 12 13 11 6 20 44 51 52 52 53 48 40 53 49 58 54 44 36 18 354 354 348 348 354 345 325 327 307 232 188 184 182 186 180 178
239 277 315 300 331 93 73 55 60 56 57 30 358 349 20 6 12 32 14 357 6 3 10 2 9 9 14 17 9 11 13 1 353 25 42 43 39 28 34 37 56 56 55 56 41 38 21 349 352 353 350 349 342 337 330 334 302 177 175 180 178 177 173
280 284 274 311 297 104 55 45 73 70 83 96 34 345 355 10 23 27 18 353 349 360 6 1 6 6 358 8 9 6 5 10 0 8 42 46 48 37 39 31 55 66 55 38 21 29 3 344 359 358 346 340 340 338 331 327 14 153 165 169 165 164 161
289 244 278 19 11 313 328 3 26 26 35 104 117 51 4 5 15 11 13 354 343 349 355 5 5 7 350 356 1 5 356 2 2 355 20 40 41 34 53 62 59 53 41 45 16 0 338 2 12 359 342 336 332 332 330 327 357 114 155 149 153 162 160
269 273 295 323 294 274 255 300 317 330 345 70 73 84 41 359 10 353 353 350 352 345 346 351 6 1 353 350 353 351 351 342 345 10 15 24 23 29 66 67 44 37 11 13 15 359 335 358 36 351 344 334 334 333 332 327 8 70 110 137 141 146 144
282 284 287 304 346 322 311 317 309 311 327 87 68 68 106 50 356 339 343 329 349 340 337 348 354 355 348 344 350 344 337 338 343 351 360 359 356 26 107 107 104 66 16 10 9 347 347 357 21 351 342 334 334 329 332 333 47 71 75 114 119 109 101
269 281 282 288 296 292 288 287 282 291 346 18 45 75 56 45 10 344 338 330 343 357 354 350 337 337 338 339 340 339 333 327 332 339 346 347 355 14 43 58 48 48 22 5 12 359 14 5 358 353 342 339 334 337 341 330 82 85 83 97 107 103 109